Weather History for KISQ - November, 2013

Change the Weather History Date:

Saturday, November 23, 2013

  Actual Average Record
Temperature  
Mean Temperature 18 °F -  
Max Temperature 25 °F 36 °F 53 °F (1999)
Min Temperature 11 °F 23 °F 1 °F (1956)
Degree Days  
Heating Degree Days 47    
Moisture  
Dew Point 11 °F    
Average Humidity 78    
Maximum Humidity 88    
Minimum Humidity 61    
Precipitation  
Precipitation 0.00 in - - ()
Sea Level Pressure  
Sea Level Pressure 30.42 in    
Wind  
Wind Speed 15 mph (NW)    
Max Wind Speed 22 mph    
Max Gust Speed 33 mph    
Visibility 5 miles    
Events Snow    
Averages and records for this station are not official NWS values.
T = Trace of Precipitation, MM = Missing Value Source: NWS Daily Summary

Daily Weather History Graph

Daily Weather History Graph

Search for Another Location

Airport or City:

Trip Planner

Search our weather history database for the weather conditions in past years. The results will help you decide how hot, cold, wet, or windy it might be!

Date:

Astronomy

Nov. 23, 2013 Rise Set
Actual Time 7:56 AM EST 5:05 PM EST
Civil Twilight 7:23 AM EST 5:38 PM EST
Nautical Twilight 6:46 AM EST 6:15 PM EST
Astronomical Twilight 6:10 AM EST 6:51 PM EST
Moon 10:41 PM EST (11/23) 12:06 PM EST (11/23)
Length of Visible Light 10h 15m
Length of Day
9h 09m
Waning Gibbous, 70% of the Moon is Illuminated
Nov 23
Waning Gibbous
Nov 25
Last Quarter
Dec 2
New
Dec 9
First Quarter
Dec 17
Full

Hourly Weather History & Observations

Time (EST) Temp. Windchill Dew Point Humidity Pressure Visibility Wind Dir Wind Speed Gust Speed Precip Events Conditions
12:14 AM 25.7 °F 14.6 °F 18.1 °F 73% 30.25 in 10.0 mi WNW 12.7 mph 19.6 mph N/A   Overcast
12:35 AM 25.5 °F 12.0 °F 17.4 °F 71% 30.26 in 10.0 mi WNW 18.4 mph 24.2 mph N/A Snow Light Snow
12:55 AM 24.6 °F 11.3 °F 17.2 °F 74% 30.26 in 10.0 mi NW 17.3 mph 26.5 mph N/A Snow Light Snow
1:14 AM 23.2 °F 10.8 °F 15.3 °F 72% 30.27 in 10.0 mi NW 13.8 mph 21.9 mph N/A   Mostly Cloudy
1:35 AM 22.6 °F 10.1 °F 13.6 °F 68% 30.27 in 10.0 mi WNW 13.8 mph 25.3 mph N/A   Mostly Cloudy
1:55 AM 21.6 °F 8.8 °F 13.3 °F 70% 30.27 in 10.0 mi WNW 13.8 mph 21.9 mph N/A   Scattered Clouds
2:14 AM 21.2 °F 7.8 °F 16.3 °F 82% 30.28 in 2.5 mi WNW 15.0 mph 21.9 mph N/A Snow Light Snow
2:35 AM 20.3 °F 7.2 °F 16.5 °F 85% 30.28 in 7.0 mi WNW 13.8 mph 20.7 mph N/A Snow Light Snow
2:54 AM 20.1 °F 8.1 °F 14.7 °F 80% 30.28 in 10.0 mi WNW 11.5 mph 21.9 mph N/A   Scattered Clouds
3:15 AM 19.8 °F 6.5 °F 12.4 °F 73% 30.28 in 10.0 mi WNW 13.8 mph 21.9 mph N/A   Scattered Clouds
3:35 AM 19.8 °F 6.5 °F 11.3 °F 70% 30.28 in 10.0 mi WNW 13.8 mph 20.7 mph N/A   Mostly Cloudy
3:54 AM 19.6 °F 8.1 °F 14.5 °F 81% 30.29 in 2.5 mi NW 10.4 mph 19.6 mph N/A Snow Light Snow
4:15 AM 18.5 °F 6.1 °F 15.4 °F 88% 30.29 in 2.0 mi WNW 11.5 mph 18.4 mph N/A Snow Light Snow
4:35 AM 18.9 °F 5.9 °F 15.3 °F 86% 30.30 in 4.0 mi WNW 12.7 mph 18.4 mph N/A Snow Light Snow
4:54 AM 19.8 °F 6.5 °F 13.3 °F 76% 30.30 in 10.0 mi NW 13.8 mph 24.2 mph N/A   Overcast
5:15 AM 18.9 °F 2.1 °F 12.4 °F 76% 30.32 in 3.0 mi NW 21.9 mph 29.9 mph N/A Snow Light Snow
5:35 AM 17.6 °F 2.7 °F 13.3 °F 83% 30.33 in 3.0 mi NW 16.1 mph 24.2 mph N/A Snow Light Snow
5:54 AM 17.1 °F 2.0 °F 7.7 °F 67% 30.33 in 10.0 mi NNW 16.1 mph 21.9 mph N/A   Scattered Clouds
6:15 AM 16.3 °F 2.1 °F 8.4 °F 71% 30.34 in 10.0 mi NNW 13.8 mph 20.7 mph N/A   Mostly Cloudy
6:34 AM 16.2 °F 2.5 °F 10.8 °F 79% 30.35 in 3.0 mi NNW 12.7 mph 28.8 mph N/A Snow Light Snow
6:55 AM 15.6 °F -0.9 °F 10.0 °F 79% 30.35 in 4.0 mi NW 18.4 mph 26.5 mph N/A Snow Light Snow
7:15 AM 15.6 °F -0.4 °F 9.0 °F 75% 30.36 in 10.0 mi NNW 17.3 mph 29.9 mph N/A   Overcast
7:34 AM 15.6 °F -0.4 °F 7.7 °F 71% 30.37 in 10.0 mi NNW 17.3 mph 26.5 mph N/A   Overcast
7:55 AM 15.4 °F 1.0 °F 8.4 °F 74% 30.38 in 4.0 mi NNW 13.8 mph 24.2 mph N/A Snow Light Snow
8:15 AM 14.9 °F 0.3 °F 8.8 °F 77% 30.38 in 5.0 mi NNW 13.8 mph 25.3 mph N/A Snow Light Snow
8:34 AM 15.1 °F 1.1 °F 10.2 °F 81% 30.39 in 3.0 mi NNW 12.7 mph 18.4 mph N/A Snow Light Snow
8:55 AM 14.9 °F -0.8 °F 11.3 °F 86% 30.40 in 0.5 mi NNW 16.1 mph 25.3 mph N/A Snow Light Snow
9:15 AM 15.6 °F 0.6 °F 10.2 °F 79% 30.41 in 10.0 mi NNW 15.0 mph 21.9 mph N/A Snow Light Snow
9:34 AM 16.7 °F 2.0 °F 10.0 °F 75% 30.41 in 10.0 mi NNW 15.0 mph 23.0 mph N/A   Mostly Cloudy
9:55 AM 17.1 °F 3.0 °F 10.2 °F 75% 30.42 in 4.0 mi NNW 13.8 mph 24.2 mph N/A Snow Light Snow
10:14 AM 18.1 °F 4.4 °F 9.3 °F 68% 30.43 in 5.0 mi NW 13.8 mph 21.9 mph N/A Snow Light Snow
10:35 AM 18.0 °F 2.6 °F 9.3 °F 69% 30.43 in 10.0 mi North 17.3 mph 21.9 mph N/A   Overcast
10:55 AM 16.9 °F -0.5 °F 10.0 °F 75% 30.43 in 2.0 mi NNW 21.9 mph 26.5 mph N/A Snow Light Snow
11:14 AM 18.3 °F 3.6 °F 10.9 °F 73% 30.44 in 5.0 mi NW 16.1 mph 24.2 mph N/A Snow Light Snow
11:35 AM 16.0 °F 2.3 °F 12.0 °F 84% 30.44 in 0.2 mi NNW 12.7 mph 26.5 mph N/A Snow Snow
11:54 AM 16.5 °F 3.0 °F 12.6 °F 84% 30.44 in 0.5 mi NW 12.7 mph 25.3 mph N/A Snow Light Snow
12:15 PM 18.1 °F 1.2 °F 11.8 °F 76% 30.44 in 2.0 mi NNW 21.9 mph 33.4 mph N/A Snow Light Snow
12:34 PM 17.6 °F 1.7 °F 10.9 °F 75% 30.44 in 4.0 mi NNW 18.4 mph 25.3 mph N/A Snow Light Snow
12:55 PM 18.5 °F 3.3 °F 9.9 °F 69% 30.44 in 5.0 mi North 17.3 mph 32.2 mph N/A Snow Light Snow
1:15 PM 19.4 °F 3.2 °F 9.9 °F 66% 30.44 in 10.0 mi North 20.7 mph 27.6 mph N/A Snow Light Snow
1:34 PM 18.0 °F 1.7 °F 11.7 °F 76% 30.45 in 2.0 mi North 19.6 mph 28.8 mph N/A Snow Light Snow
1:55 PM 17.1 °F 0.1 °F 10.9 °F 77% 30.45 in 1.8 mi North 20.7 mph 27.6 mph N/A Snow Light Snow
2:15 PM 17.1 °F 1.0 °F 10.4 °F 75% 30.46 in 4.0 mi North 18.4 mph 32.2 mph N/A Snow Light Snow
2:34 PM 16.7 °F 2.6 °F 9.9 °F 74% 30.46 in 10.0 mi NNW 13.8 mph 23.0 mph N/A   Mostly Cloudy
2:55 PM 17.4 °F 2.9 °F 9.1 °F 70% 30.46 in 10.0 mi North 15.0 mph 24.2 mph N/A   Mostly Cloudy
3:15 PM 18.5 °F 1.6 °F 7.0 °F 61% 30.46 in 10.0 mi NW 21.9 mph 29.9 mph N/A   Overcast
3:34 PM 16.7 °F 1.5 °F 11.5 °F 80% 30.47 in 1.0 mi NW 16.1 mph 23.0 mph N/A Snow Light Snow
3:55 PM 16.0 °F 0.6 °F 11.7 °F 83% 30.48 in 0.8 mi NNW 16.1 mph 26.5 mph N/A Snow Light Snow
4:14 PM 16.3 °F 1.6 °F 11.5 °F 81% 30.48 in 1.8 mi NNW 15.0 mph 20.7 mph N/A Snow Light Snow
4:35 PM 15.8 °F 6.1 °F 10.6 °F 80% 30.49 in 10.0 mi NW 6.9 mph - N/A Snow Light Snow
4:55 PM 15.3 °F 0.2 °F 9.7 °F 79% 30.49 in 10.0 mi WNW 15.0 mph 20.7 mph N/A   Mostly Cloudy
5:14 PM 14.9 °F 0.9 °F 10.4 °F 82% 30.50 in 2.5 mi WNW 12.7 mph 19.6 mph N/A Snow Light Snow
5:35 PM 15.3 °F -0.9 °F 11.3 °F 84% 30.50 in 1.0 mi NNW 17.3 mph 27.6 mph N/A Snow Snow
5:55 PM 14.7 °F 0.7 °F 11.1 °F 86% 30.51 in 1.5 mi WNW 12.7 mph 23.0 mph N/A Snow Light Snow
6:14 PM 13.8 °F -2.7 °F 10.4 °F 86% 30.52 in 1.5 mi WNW 17.3 mph 24.2 mph N/A Snow Light Snow
6:35 PM 13.6 °F -1.3 °F 10.4 °F 87% 30.52 in 1.0 mi WNW 13.8 mph 20.7 mph N/A Snow Snow
6:55 PM 13.1 °F -3.1 °F 9.3 °F 85% 30.52 in 1.5 mi WNW 16.1 mph 24.2 mph N/A Snow Light Snow
7:14 PM 12.7 °F -4.1 °F 8.6 °F 84% 30.53 in 1.8 mi WNW 17.3 mph 26.5 mph N/A Snow Light Snow
7:35 PM 12.2 °F -4.8 °F 7.7 °F 82% 30.53 in 4.0 mi WNW 17.3 mph 24.2 mph N/A Snow Light Snow
7:54 PM 12.2 °F -5.3 °F 8.8 °F 86% 30.53 in 1.0 mi WNW 18.4 mph 24.2 mph N/A Snow Light Snow
8:15 PM 12.2 °F -3.7 °F 8.2 °F 84% 30.53 in 1.2 mi WNW 15.0 mph 20.7 mph N/A Snow Light Snow
8:35 PM 12.0 °F -4.0 °F 7.5 °F 82% 30.53 in 5.0 mi WNW 15.0 mph 21.9 mph N/A Snow Light Snow
8:54 PM 11.7 °F -3.2 °F 7.5 °F 83% 30.52 in 7.0 mi West 12.7 mph 19.6 mph N/A   Overcast
9:15 PM 11.8 °F -2.3 °F 7.5 °F 83% 30.52 in 7.0 mi West 11.5 mph - N/A   Overcast
9:35 PM 11.7 °F -2.5 °F 7.7 °F 84% 30.52 in 4.0 mi WNW 11.5 mph 17.3 mph N/A Snow Light Snow
9:54 PM 12.0 °F -2.7 °F 7.7 °F 83% 30.51 in 5.0 mi West 12.7 mph - N/A Snow Light Snow
10:15 PM 11.3 °F -3.6 °F 7.3 °F 84% 30.51 in 7.0 mi West 12.7 mph - N/A Snow Light Snow
10:34 PM 11.8 °F -3.6 °F 8.2 °F 85% 30.51 in 1.0 mi West 13.8 mph - N/A Snow Light Snow
10:55 PM 11.8 °F -2.3 °F 8.1 °F 85% 30.51 in 1.8 mi West 11.5 mph 17.3 mph N/A Snow Light Snow
11:15 PM 12.0 °F -1.3 °F 8.4 °F 85% 30.51 in 1.8 mi West 10.4 mph 16.1 mph N/A Snow Light Snow
11:34 PM 12.2 °F -2.5 °F 8.6 °F 85% 30.51 in 1.5 mi West 12.7 mph 18.4 mph N/A Snow Light Snow
11:55 PM 12.2 °F -0.2 °F 8.6 °F 85% 30.51 in 1.2 mi WNW 9.2 mph - N/A Snow Light Snow